TimeWST,TemperatureF,Dew PointF,Humidity,Sea Level PressureIn,VisibilityMPH,Wind Direction,Wind SpeedMPH,Gust SpeedMPH,PrecipitationIn,Events,Conditions,WindDirDegrees,DateUTC
12:00 AM,64,64,99,29.97,,SSW,6.9,,,,,200,2013-03-07 16:00:00
12:00 AM,64.4,64.4,100,29.98,-9999.0,SSW,6.9,-,N/A,,Unknown,200,2013-03-07 16:00:00
1:00 AM,62.6,62.6,100,29.98,-9999.0,SW,6.9,-,N/A,,Unknown,220,2013-03-07 17:00:00
2:00 AM,63,63,100,29.97,,SSW,8.1,,,,,210,2013-03-07 18:00:00
2:00 AM,62.6,62.6,100,29.98,-9999.0,SSW,8.1,-,N/A,,Unknown,210,2013-03-07 18:00:00
3:00 AM,63,63,98,29.96,,SSW,10.4,,,,,210,2013-03-07 19:00:00
3:00 AM,62.6,62.6,100,29.98,-9999.0,SSW,10.4,-,N/A,,Unknown,210,2013-03-07 19:00:00
4:00 AM,62.6,62.6,100,29.98,-9999.0,SSW,10.4,-,N/A,,Unknown,210,2013-03-07 20:00:00
5:00 AM,63,63,100,29.96,,SSW,9.2,,,,,200,2013-03-07 21:00:00
5:00 AM,-9999,-9999,N/A,29.98,-9999.0,SSW,9.2,-,N/A,,Unknown,200,2013-03-07 21:00:00
6:00 AM,63,,,29.98,,SSW,10.4,,,,,200,2013-03-07 22:00:00
6:00 AM,-9999,-9999,N/A,29.98,-9999.0,SSW,10.4,-,N/A,,Unknown,200,2013-03-07 22:00:00
7:00 AM,-9999,-9999,N/A,30.01,-9999.0,SSW,13.8,-,N/A,,Unknown,200,2013-03-07 23:00:00
8:00 AM,71,63,70,29.99,,SSW,16.1,,,,,210,2013-03-08 00:00:00
8:00 AM,71.6,62.6,73,30.01,-9999.0,SSW,16.1,-,N/A,,Unknown,210,2013-03-08 00:00:00
9:00 AM,74,59,51,30.00,,South,13.8,,,,,190,2013-03-08 01:00:00
9:00 AM,73.4,59.0,61,30.01,-9999.0,South,13.8,-,N/A,,Unknown,190,2013-03-08 01:00:00
10:00 AM,75.2,59.0,57,29.98,-9999.0,SSW,15.0,-,N/A,,Unknown,200,2013-03-08 02:00:00
11:00 AM,78,59,42,29.97,,SSW,15.0,,,,,210,2013-03-08 03:00:00
11:00 AM,77.0,59.0,54,29.98,-9999.0,SSW,15.0,-,N/A,,Unknown,210,2013-03-08 03:00:00
12:00 PM,80,58,36,29.95,,South,12.7,,,,,190,2013-03-08 04:00:00
12:00 PM,80.6,57.2,45,29.95,-9999.0,South,12.7,-,N/A,,Unknown,190,2013-03-08 04:00:00
1:00 PM,82.4,57.2,42,29.92,-9999.0,SW,12.7,-,N/A,,Unknown,230,2013-03-08 05:00:00
2:00 PM,82,57,32,29.91,,SSW,13.8,,,,,200,2013-03-08 06:00:00
2:00 PM,82.4,57.2,42,29.92,-9999.0,SSW,13.8,-,N/A,,Unknown,200,2013-03-08 06:00:00
3:00 PM,84,57,29,29.91,,SSW,15.0,,,,,200,2013-03-08 07:00:00
3:00 PM,84.2,57.2,40,29.92,-9999.0,SSW,15.0,-,N/A,,Unknown,200,2013-03-08 07:00:00
4:00 PM,82.4,57.2,42,29.92,-9999.0,SSE,17.3,-,N/A,,Unknown,160,2013-03-08 08:00:00
5:00 PM,78,58,39,29.92,,South,18.4,,,,,190,2013-03-08 09:00:00
5:00 PM,78.8,57.2,47,29.92,-9999.0,South,18.4,-,N/A,,Unknown,190,2013-03-08 09:00:00
6:00 PM,74,58,48,29.95,,South,17.3,,,,,180,2013-03-08 10:00:00
6:00 PM,73.4,59.0,61,29.95,-9999.0,South,17.3,-,N/A,,Unknown,180,2013-03-08 10:00:00
7:00 PM,71.6,60.8,69,29.98,-9999.0,South,15.0,-,N/A,,Unknown,180,2013-03-08 11:00:00
8:00 PM,69,62,73,30.00,,South,11.5,,,,,170,2013-03-08 12:00:00
8:00 PM,69.8,62.6,78,30.01,-9999.0,South,11.5,-,N/A,,Unknown,170,2013-03-08 12:00:00
9:00 PM,68,66,90,30.01,,South,10.4,,,,,170,2013-03-08 13:00:00
9:00 PM,68.0,66.2,94,30.01,-9999.0,South,10.4,-,N/A,,Unknown,170,2013-03-08 13:00:00
10:00 PM,66.2,66.2,100,30.01,-9999.0,SSE,10.4,-,N/A,,Unknown,160,2013-03-08 14:00:00
11:00 PM,66,66,98,30.00,,South,8.1,,,,,170,2013-03-08 15:00:00
11:00 PM,66.2,66.2,100,30.01,-9999.0,South,8.1,-,N/A,,Unknown,170,2013-03-08 15:00:00